Overview Statistics Trail Chart Weather Telemetry Raw packets
 

This is the latest recevied weather packets stored in our database for station/object KO4DYK. If no packets are shown the sender has not sent any weather packets the latest 10 day(s).

<< 1 2 3 4 5 6 >>
Time Temp. Humidity Pressure Rain* Wind** Luminosity Snow
1788654583 30.56° C 73% 1012.1 hPa 0 mm - 0 W/m² -
1788654283 31.11° C 72% 1012.3 hPa 0 mm - 0 W/m² -
1788653978 31.67° C 71% 1012.4 hPa 0 mm - 0 W/m² -
1788653674 31.67° C 70% 1012.3 hPa 0 mm - 2 W/m² -
1788653369 32.78° C 68% 1012.2 hPa 0 mm - 5 W/m² -
1788653064 32.78° C 66% 1012.2 hPa 0 mm - 9 W/m² -
1788652759 33.33° C 66% 1012.2 hPa 0 mm - 12 W/m² -
1788652458 33.89° C 67% 1012.2 hPa 0 mm - 15 W/m² -
1788652153 33.89° C 65% 1012.5 hPa 0 mm - 19 W/m² -
1788651849 34.44° C 63% 1012.4 hPa 0 mm - 23 W/m² -
1788651543 34.44° C 62% 1012.5 hPa 0 mm - 26 W/m² -
1788651238 35° C 62% 1012.4 hPa 0 mm - 29 W/m² -
1788650938 35.56° C 61% 1012.3 hPa 0 mm - 33 W/m² -
1788650634 35.56° C 58% 1012.1 hPa 0 mm - 36 W/m² -
1788650329 36.11° C 57% 1012.3 hPa 0 mm - 39 W/m² -
1788650024 36.11° C 55% 1012.3 hPa 0 mm - 42 W/m² -
1788649721 36.11° C 52% 1012.2 hPa 0 mm - 47 W/m² -
1788649418 36.67° C 52% 1012.1 hPa 0 mm - 49 W/m² -
1788649118 36.67° C 51% 1012.4 hPa 0 mm - 53 W/m² -
1788648813 36.67° C 52% 1012.3 hPa 0 mm - 56 W/m² -
1788648508 37.22° C 48% 1012.3 hPa 0 mm - 61 W/m² -
1788648204 37.22° C 48% 1012.4 hPa 0 mm - 68 W/m² -
1788647904 37.78° C 47% 1012.3 hPa 0 mm - 67 W/m² -
1788647602 37.78° C 47% 1012.4 hPa 0 mm - 85 W/m² -
1788647297 38.33° C 47% 1012.4 hPa 0 mm - 73 W/m² -

* Rain latest hour (hover to see other rain measurements)
** Current wind speed in m/s (hover to see current wind gust speed)